DECAYED

CZ-2D DEB, 58144 (Decayed)

Orbit data source: Space-Track

CZ-2D DEB, 58144 was space debris in LEO originally from a launch on Mon, 23 Oct 2023 UTC launched from the Xichang Space Center, China (XSC). Debris objects in space refer to the collection of defunct objects orbiting the Earth. Examples of debris include non-operational satellites, rocket bodies, and fragments generated from explosions, collisions, or faulty payload assembly.

Not visible in the next 10 days
CZ-2D DEB details
Identifier
58144, 2023-163D
Orbit
Decayed
Last TLE update5 months ago
Origin
Flag of CNCASC (CN / PRC)
ManufacturerSAST
MissionDecayed spacecraft
Bus & MotorUnknown
Mass300 kg wet, 300 kg dry
Launch date (UTC)
2023-10-23 (1 year ago)
Launch vehicleUnknown
Launch site
Xichang Space Center, China (XSC)
Object type
Payload
Rocket body
Debris
Shape & HBRCone + 1 Sail, 5 m
Radar Cross Section4.639 m², Large (>1 m²)

Expand to show TLE details & history

TLE from 5 months ago
0 CZ-2D DEB
1 58144U 23163D   24204.77725051  .08939502  14539-5  22271-2 0  9992
2 58144  34.9775 336.7201 0010539 348.7546 128.8930 16.27794060 42195
Epoch: 2024-07-22T18:39Z
Definitive object data (Epoch: 2024-07-22T18:39:14.444Z)
Latitude30.62413°
Longitude-121.37024°
Altitude202.552 km
Speed7.788 km/s
True Right ascension06h 37m 46s
True Declination30° 27' 39"
Sunlit
Object was in daylight at TLE epoch
Visualization observer readout
Observer readout values are unavailable because the object's trajectory could not be propagated. This is usually caused when the trajectory data is faulty or the object's orbit has decayed.
Visualization observer readout
Observer readout values are unavailable because the object's trajectory could not be propagated. This is usually caused when the trajectory data is faulty or the object's orbit has decayed.
Orbital elements
Apogee altitude208.81 km
Perigee altitude194.941 km
Semi-major axis6,580.013 km
Eccentricity0.0010539
Inclination34.9775°
RAAN336.7201°
Arg. of periapsis348.7546°
True anomaly128.98692°
Mean anomaly128.893°
Eccentric anomaly128.93997°
Mean motion4.06633 °/min
BSTAR0.0022271
Orbital period88.53 mins
Loading maneuver chart data...
Loading historical data...
Loading historical data...
Loading historical data...
Loading historical data...
Loading historical data...
Loading historical data...
Loading historical data...

CZ-2D DEB Visibility forecast

Observer location: undefined°, undefined

This satellite is decayed
Span
Click to sort rows by Start time (UTC) header in descending order
Start Az.
Max El. time (UTC)
Max El. Az.
Max El.
End time (UTC)
End Az.
|